Location: Bourg-d�Oueil
(42.8588°N, 0.4991°E)
Time: 15:04:18
(UTC+00:00)

CENTAUR R/B - Pass Details

Date: 16 June 2021
Orbit: 740 x 1447 km, 63.4° (Epoch: 17 July)

Event Time Altitude Azimuth Distance (km) Brightness Sun altitude
Rises 20:04:55 0° 209° (SSW) 3,334 5.2 -4.7°
Reaches altitude 10° 20:07:12 10° 208° (SSW) 2,472 4.5 -5.0°
Maximum altitude 20:12:54 78° 123° (ESE) 978 2.5 -5.8°
Drops below altitude 10° 20:19:47 10° 38° (NE) 2,951 5.1 -6.8°
Sets 20:22:42 0° 38° (NE) 4,026 5.8 -7.2°
